Location: Warszawa
(52.2500°N, 21.0000°E)
Time: 21:27:08
(UTC+02:00)

AO-91 - Pass Details

Date: 02 May 2024
Orbit: 441 x 737 km, 97.6° (Epoch: 20 May)

Event Time Altitude Azimuth Distance (km) Brightness Sun altitude
Rises 22:00:47 0° 19° (NNE) 2,476 ? -14.5°
Reaches altitude 10° 22:02:51 10° 27° (NNE) 1,619 ? -14.7°
Maximum altitude 22:06:09 43° 100° (E) 691 ? -15.0°
Enters shadow 22:07:23 30° 148° (SSE) 890 ? -15.1°
